Leesburg, VA

3:05 PM EST on November 15, 2019 (GMT -0500)
Leesburg Executive

Weather History for KJYO - October, 2019

Change the Weather History Date:

Monday, October 21, 2019

  Actual Average (KIAD) Record (KIAD)
Temperature  
Mean Temperature 59 °F -  
Max Temperature 68 °F 66 °F 86 °F (1979)
Min Temperature 50 °F 38 °F 22 °F (1972)
Degree Days  
Heating Degree Days 6    
Growing Degree Days 9 (Base 50)    
Moisture  
Dew Point 51 °F    
Average Humidity 83    
Maximum Humidity 100    
Minimum Humidity 56    
Precipitation  
Precipitation 0.00 in - - ()
Sea Level Pressure  
Sea Level Pressure 30.07 in    
Wind  
Wind Speed 5 mph (NE)    
Max Wind Speed 10 mph    
Max Gust Speed 16 mph    
Visibility 10 miles    
Events      
Averages and records for this station are not official NWS values.
T = Trace of Precipitation, MM = Missing Value Source: NWS Daily Summary

Daily Weather History Graph

Daily Weather History Graph

Search for Another Location

Airport or City:

Astronomy

Oct. 21, 2019 Rise Set
Actual Time 7:25 AM EDT 6:23 PM EDT
Civil Twilight 6:58 AM EDT 6:50 PM EDT
Nautical Twilight 6:27 AM EDT 7:21 PM EDT
Astronomical Twilight 5:56 AM EDT 7:52 PM EDT
Moon No Moon Rise 2:40 PM EDT (10/21)
Length of Visible Light 11h 52m
Length of Day
10h 57m
Waning Gibbous, 48% of the Moon is Illuminated
Oct 21
Waning Gibbous
Oct 27
New
Nov 4
First Quarter
Nov 12
Full
Nov 19
Last Quarter

Hourly Weather History & Observations

Time (EDT) Temp. Dew Point Humidity Pressure Visibility Wind Dir Wind Speed Gust Speed Precip Events Conditions
12:15 AM 51.8 °F 50.0 °F 94% 30.02 in 10.0 mi North 6.9 mph - N/A   Overcast
12:35 AM 51.8 °F 50.0 °F 94% 30.02 in 10.0 mi North 5.8 mph - N/A   Overcast
12:55 AM 51.8 °F 51.8 °F 100% 30.02 in 7.0 mi NNW 6.9 mph - N/A   Overcast
1:15 AM 51.8 °F 50.0 °F 94% 30.03 in 10.0 mi NNW 8.1 mph - N/A   Overcast
1:35 AM 51.8 °F 50.0 °F 94% 30.03 in 10.0 mi North 9.2 mph - N/A   Overcast
1:55 AM 51.8 °F 50.0 °F 94% 30.03 in 10.0 mi North 6.9 mph - N/A   Overcast
2:15 AM 51.8 °F 50.0 °F 94% 30.03 in 10.0 mi NNE 6.9 mph - N/A   Overcast
2:35 AM 51.8 °F 50.0 °F 94% 30.03 in 10.0 mi North 6.9 mph - N/A   Overcast
2:55 AM 51.8 °F 50.0 °F 94% 30.03 in 10.0 mi North 5.8 mph - N/A   Overcast
3:15 AM 51.8 °F 50.0 °F 94% 30.04 in 10.0 mi North 4.6 mph - N/A   Overcast
3:35 AM 51.8 °F 50.0 °F 94% 30.04 in 10.0 mi North 5.8 mph - N/A   Overcast
3:55 AM 50.0 °F 50.0 °F 100% 30.05 in 10.0 mi North 6.9 mph - N/A   Overcast
4:15 AM 51.8 °F 50.0 °F 94% 30.05 in 10.0 mi North 6.9 mph - N/A   Overcast
4:35 AM 51.8 °F 50.0 °F 94% 30.05 in 10.0 mi NNE 4.6 mph - N/A   Overcast
4:55 AM 51.8 °F 50.0 °F 94% 30.06 in 10.0 mi North 8.1 mph - N/A   Overcast
5:15 AM 51.8 °F 50.0 °F 94% 30.06 in 10.0 mi North 10.4 mph - N/A   Overcast
5:35 AM 51.8 °F 50.0 °F 94% 30.07 in 10.0 mi North 5.8 mph - N/A   Overcast
5:55 AM 51.8 °F 50.0 °F 94% 30.06 in 10.0 mi North 6.9 mph 16.1 mph N/A   Overcast
6:15 AM 51.8 °F 50.0 °F 94% 30.07 in 10.0 mi NNE 8.1 mph - N/A   Overcast
6:35 AM 51.8 °F 50.0 °F 94% 30.07 in 10.0 mi North 4.6 mph - N/A   Overcast
6:55 AM 51.8 °F 50.0 °F 94% 30.08 in 10.0 mi North 6.9 mph - N/A   Overcast
7:15 AM 51.8 °F 50.0 °F 94% 30.09 in 10.0 mi North 6.9 mph - N/A   Overcast
7:35 AM 51.8 °F 50.0 °F 94% 30.09 in 10.0 mi North - - N/A   Overcast
7:55 AM 51.8 °F 50.0 °F 94% 30.09 in 10.0 mi North 4.6 mph - N/A   Overcast
8:15 AM 51.8 °F 50.0 °F 94% 30.10 in 10.0 mi NNE 3.5 mph - N/A   Overcast
8:35 AM 51.8 °F 50.0 °F 94% 30.11 in 7.0 mi North 5.8 mph - N/A   Overcast
8:55 AM 51.8 °F 50.0 °F 94% 30.11 in 10.0 mi North 4.6 mph - N/A   Overcast
9:15 AM 51.8 °F 50.0 °F 94% 30.12 in 10.0 mi NNE 3.5 mph - N/A   Overcast
9:35 AM 53.6 °F 50.0 °F 88% 30.13 in 10.0 mi North 5.8 mph - N/A   Overcast
9:55 AM 53.6 °F 50.0 °F 88% 30.13 in 10.0 mi NE 8.1 mph - N/A   Overcast
10:15 AM 53.6 °F 50.0 °F 88% 30.13 in 10.0 mi NE 5.8 mph - N/A   Overcast
10:35 AM 53.6 °F 50.0 °F 88% 30.14 in 10.0 mi ENE 5.8 mph - N/A   Overcast
10:55 AM 55.4 °F 50.0 °F 82% 30.13 in 10.0 mi NE 4.6 mph - N/A   Overcast
11:15 AM 55.4 °F 50.0 °F 82% 30.13 in 10.0 mi ENE 4.6 mph - N/A   Overcast
11:35 AM 55.4 °F 50.0 °F 82% 30.12 in 10.0 mi Calm Calm - N/A   Mostly Cloudy
11:55 AM 57.2 °F 50.0 °F 77% 30.13 in 10.0 mi Calm Calm - N/A   Mostly Cloudy
12:15 PM 59.0 °F 50.0 °F 72% 30.12 in 10.0 mi Calm Calm - N/A   Scattered Clouds
12:35 PM 59.0 °F 51.8 °F 77% 30.13 in 10.0 mi NW 4.6 mph - N/A   Clear
12:55 PM 60.8 °F 51.8 °F 72% 30.12 in 10.0 mi Calm Calm - N/A   Scattered Clouds
1:15 PM 60.8 °F 51.8 °F 72% 30.10 in 10.0 mi Calm Calm - N/A   Scattered Clouds
1:35 PM 62.6 °F 51.8 °F 68% 30.09 in 10.0 mi Calm Calm - N/A   Clear
1:55 PM 64.4 °F 51.8 °F 64% 30.08 in 10.0 mi Calm Calm - N/A   Clear
2:15 PM 64.4 °F 51.8 °F 64% 30.07 in 10.0 mi Calm Calm - N/A   Clear
2:35 PM 64.4 °F 51.8 °F 64% 30.07 in 10.0 mi Calm Calm - N/A   Clear
2:55 PM 64.4 °F 51.8 °F 64% 30.07 in 10.0 mi Calm Calm - N/A   Clear
3:15 PM 64.4 °F 51.8 °F 64% 30.06 in 10.0 mi Calm Calm - N/A   Clear
3:35 PM 66.2 °F 51.8 °F 60% 30.06 in 10.0 mi Calm Calm - N/A   Clear
3:55 PM 66.2 °F 51.8 °F 60% 30.06 in 10.0 mi Calm Calm - N/A   Clear
4:35 PM 68.0 °F 51.8 °F 56% 30.05 in 10.0 mi SSE 4.6 mph - N/A   Clear
4:55 PM 66.2 °F 51.8 °F 60% 30.04 in 10.0 mi South 3.5 mph - N/A   Clear
5:15 PM 66.2 °F 51.8 °F 60% 30.05 in 10.0 mi SSE 3.5 mph - N/A   Clear
5:35 PM 64.4 °F 51.8 °F 64% 30.05 in 10.0 mi Calm Calm - N/A   Clear
5:55 PM 64.4 °F 51.8 °F 64% 30.05 in 10.0 mi SSE 3.5 mph - N/A   Clear
6:15 PM 64.4 °F 51.8 °F 64% 30.05 in 10.0 mi SSE 4.6 mph - N/A   Clear
6:35 PM 62.6 °F 51.8 °F 68% 30.05 in 10.0 mi SE 3.5 mph - N/A   Clear
6:55 PM 62.6 °F 51.8 °F 68% 30.05 in 10.0 mi SSE 6.9 mph - N/A   Clear
7:15 PM 60.8 °F 51.8 °F 72% 30.06 in 10.0 mi SSE 3.5 mph - N/A   Clear
7:35 PM 60.8 °F 53.6 °F 77% 30.07 in 10.0 mi SSE 5.8 mph - N/A   Clear
7:55 PM 60.8 °F 53.6 °F 77% 30.06 in 10.0 mi South 6.9 mph - N/A   Clear
8:15 PM 59.0 °F 53.6 °F 82% 30.07 in 10.0 mi SSW 6.9 mph - N/A   Clear
8:35 PM 59.0 °F 53.6 °F 82% 30.08 in 10.0 mi ESE 6.9 mph - N/A   Clear
8:55 PM 59.0 °F 53.6 °F 82% 30.09 in 10.0 mi Calm Calm - N/A   Clear
9:15 PM 59.0 °F 53.6 °F 82% 30.08 in 10.0 mi SSE 4.6 mph - N/A   Clear
9:35 PM 59.0 °F 53.6 °F 82% 30.09 in 10.0 mi South 6.9 mph - N/A   Clear
9:55 PM 59.0 °F 53.6 °F 82% 30.09 in 10.0 mi South 8.1 mph - N/A   Clear
10:15 PM 57.2 °F 53.6 °F 88% 30.08 in 10.0 mi South 4.6 mph - N/A   Clear
10:35 PM 59.0 °F 53.6 °F 82% 30.07 in 10.0 mi SSE 6.9 mph - N/A   Clear
10:55 PM 57.2 °F 53.6 °F 88% 30.07 in 10.0 mi South 8.1 mph - N/A   Clear
11:15 PM 57.2 °F 53.6 °F 88% 30.08 in 10.0 mi SSW 6.9 mph - N/A   Clear
11:35 PM 55.4 °F 53.6 °F 94% 30.08 in 10.0 mi SSW 5.8 mph - N/A   Scattered Clouds
11:55 PM 55.4 °F 53.6 °F 94% 30.08 in 10.0 mi South 4.6 mph - N/A   Mostly Cloudy